Slayton, MN

10:41 PM CDT on September 28, 2016 (GMT -0500)
Slayton

Weather History for KDVP - May, 2013

Change the Weather History Date:

Sunday, May 19, 2013

  Actual Average (KOTG) Record (KOTG)
Temperature  
Mean Temperature 66 °F -  
Max Temperature 71 °F 64 °F 90 °F (1977)
Min Temperature 61 °F 45 °F 33 °F (2000)
Cooling Degree Days 1    
Growing Degree Days 16 (Base 50)    
Moisture  
Dew Point 62 °F    
Average Humidity 86    
Maximum Humidity 99    
Minimum Humidity 68    
Precipitation  
Precipitation 0.22 in - - ()
Sea Level Pressure  
Sea Level Pressure 29.66 in    
Wind  
Wind Speed 11 mph (SSE)    
Max Wind Speed 23 mph    
Max Gust Speed 29 mph    
Visibility 8 miles    
Events Rain , Thunderstorm    
Averages and records for this station are not official NWS values.
T = Trace of Precipitation, MM = Missing Value Source: NWS Daily Summary

Daily Weather History Graph

Daily Weather History Graph

Search for Another Location

Airport or City:

Trip Planner

Search our weather history database for the weather conditions in past years. The results will help you decide how hot, cold, wet, or windy it might be!

Date:

Astronomy

May. 19, 2013 Rise Set
Actual Time 5:52 AM CDT 8:47 PM CDT
Civil Twilight 5:18 AM CDT 9:21 PM CDT
Nautical Twilight 4:35 AM CDT 10:04 PM CDT
Astronomical Twilight 3:45 AM CDT 10:55 PM CDT
Moon 2:40 PM CDT (5/19) 2:29 AM CDT (5/19)
Length of Visible Light 16h 02m
Length of Day
14h 54m
Waxing Gibbous, 65% of the Moon is Illuminated
May 19
Waxing Gibbous
May 24
Full
May 31
Last Quarter
Jun 8
New
Jun 16
First Quarter

Hourly Weather History & Observations

Time (CDT) Temp. Dew Point Humidity Pressure Visibility Wind Dir Wind Speed Gust Speed Precip Events Conditions
12:14 AM 68.2 °F 60.4 °F 76% 29.76 in 10.0 mi SE 10.4 mph - N/A   Scattered Clouds
12:32 AM 68.5 °F 60.4 °F 75% 29.76 in 10.0 mi SE 11.5 mph - N/A   Scattered Clouds
12:54 AM 68.5 °F 60.8 °F 76% 29.76 in 10.0 mi SE 11.5 mph - N/A   Mostly Cloudy
1:13 AM 68.9 °F 60.8 °F 75% 29.75 in 10.0 mi SE 12.7 mph - N/A   Mostly Cloudy
1:33 AM 68.9 °F 61.0 °F 76% 29.74 in 10.0 mi SE 15.0 mph - N/A   Scattered Clouds
1:53 AM 69.3 °F 61.2 °F 75% 29.73 in 10.0 mi SE 17.3 mph - N/A   Mostly Cloudy
2:14 AM 69.1 °F 61.2 °F 76% 29.72 in 10.0 mi SE 17.3 mph - N/A   Overcast
2:33 AM 69.3 °F 61.7 °F 77% 29.73 in 10.0 mi SSE 20.7 mph 25.3 mph N/A Thunderstorm Overcast
2:52 AM 66.7 °F 62.1 °F 85% 29.75 in 4.0 mi SSW 18.4 mph 28.8 mph 0.16 in Rain , Thunderstorm Light Thunderstorms and Rain
3:13 AM 64.0 °F 60.3 °F 87% 29.72 in 7.0 mi SW 9.2 mph - N/A Rain , Thunderstorm Light Thunderstorms and Rain
3:33 AM 63.7 °F 61.2 °F 91% 29.75 in 10.0 mi South 3.5 mph - N/A Thunderstorm Thunderstorm
3:54 AM 64.4 °F 62.6 °F 94% 29.74 in 7.0 mi Calm Calm - N/A   Mostly Cloudy
4:13 AM 62.6 °F 61.7 °F 97% 29.70 in 7.0 mi Calm Calm - N/A   Mostly Cloudy
4:33 AM 62.2 °F 61.3 °F 97% 29.71 in 7.0 mi ESE 5.8 mph - N/A   Scattered Clouds
4:53 AM 62.8 °F 62.4 °F 99% 29.70 in 7.0 mi SE 8.1 mph - N/A Rain Light Rain
5:13 AM 64.0 °F 61.3 °F 91% 29.69 in 10.0 mi SSE 9.2 mph - N/A Rain Light Rain
5:34 AM 64.0 °F 62.4 °F 94% 29.64 in 10.0 mi ENE 4.6 mph - N/A Rain Light Rain
5:52 AM 63.7 °F 62.6 °F 96% 29.61 in 7.0 mi North 4.6 mph - N/A   Scattered Clouds
6:12 AM 63.5 °F 62.6 °F 97% 29.61 in 7.0 mi NE 4.6 mph - N/A   Clear
6:32 AM 63.5 °F 62.8 °F 97% 29.63 in 7.0 mi Calm Calm - N/A   Scattered Clouds
7:13 AM 63.5 °F 62.8 °F 97% 29.69 in 5.0 mi SSE 13.8 mph - N/A   Mostly Cloudy
7:33 AM 63.7 °F 62.8 °F 97% 29.67 in 7.0 mi SSE 13.8 mph - N/A   Mostly Cloudy
7:53 AM 63.9 °F 61.7 °F 93% 29.68 in 10.0 mi SSE 10.4 mph - N/A   Scattered Clouds
8:14 AM 63.9 °F 62.1 °F 94% 29.68 in 10.0 mi SE 16.1 mph - N/A   Scattered Clouds
8:33 AM 64.4 °F 61.9 °F 92% 29.68 in 10.0 mi SE 16.1 mph 20.7 mph N/A   Scattered Clouds
8:53 AM 66.6 °F 63.1 °F 89% 29.68 in 10.0 mi SSE 19.6 mph - N/A   Clear
9:13 AM 67.6 °F 63.3 °F 86% 29.69 in 10.0 mi SSE 19.6 mph - N/A   Scattered Clouds
9:33 AM 68.2 °F 61.7 °F 80% 29.68 in 10.0 mi SSE 23.0 mph - N/A   Scattered Clouds
9:53 AM 69.8 °F 62.4 °F 77% 29.67 in 10.0 mi SSE 17.3 mph - N/A   Clear
10:13 AM 70.7 °F 59.7 °F 68% 29.67 in 10.0 mi South 15.0 mph 19.6 mph N/A   Clear
10:33 AM 70.0 °F 59.9 °F 70% 29.68 in 10.0 mi South 15.0 mph 21.9 mph N/A   Clear
10:53 AM 71.1 °F 60.6 °F 69% 29.69 in 10.0 mi South 19.6 mph 24.2 mph N/A   Scattered Clouds
11:13 AM 70.0 °F 60.6 °F 72% 29.69 in 10.0 mi South 20.7 mph 28.8 mph N/A   Overcast
11:33 AM 69.1 °F 61.0 °F 75% 29.69 in 10.0 mi South 18.4 mph - N/A   Mostly Cloudy
11:53 AM 68.4 °F 61.0 °F 77% 29.71 in 10.0 mi South 16.1 mph 20.7 mph N/A   Overcast
12:13 PM 68.0 °F 60.8 °F 78% 29.69 in 10.0 mi South 15.0 mph 20.7 mph N/A   Overcast
12:34 PM 68.9 °F 61.0 °F 76% 29.67 in 10.0 mi SSW 11.5 mph - N/A   Scattered Clouds
12:54 PM 68.5 °F 61.7 °F 79% 29.65 in 10.0 mi SW 12.7 mph - N/A   Scattered Clouds
1:13 PM 67.5 °F 61.2 °F 80% 29.65 in 10.0 mi SSW 13.8 mph - N/A   Mostly Cloudy
1:34 PM 68.0 °F 62.6 °F 83% 29.67 in 10.0 mi South 10.4 mph - N/A   Mostly Cloudy
2:12 PM 67.1 °F 62.8 °F 86% 29.66 in 5.0 mi SSW 12.7 mph - N/A Rain Light Rain
2:33 PM 66.2 °F 62.1 °F 86% 29.67 in 7.0 mi South 9.2 mph - 0.01 in Rain Light Rain
2:53 PM 65.5 °F 61.7 °F 88% 29.67 in 7.0 mi South 8.1 mph - 0.02 in Rain Rain
3:13 PM 65.3 °F 61.0 °F 86% 29.67 in 7.0 mi SSW 10.4 mph - N/A Rain Light Rain
3:33 PM 65.3 °F 62.4 °F 90% 29.67 in 5.0 mi SW 8.1 mph - 0.01 in Rain Light Rain
3:53 PM 65.1 °F 62.2 °F 90% 29.67 in 4.0 mi SW 13.8 mph - 0.02 in Rain Light Rain
4:13 PM 65.1 °F 63.0 °F 93% 29.67 in 4.0 mi SW 9.2 mph - 0.01 in Rain Light Rain
4:33 PM 65.5 °F 61.7 °F 88% 29.67 in 5.0 mi SW 11.5 mph - 0.02 in Rain Light Rain
4:53 PM 66.4 °F 62.1 °F 86% 29.67 in 5.0 mi SW 9.2 mph - 0.02 in Rain Light Rain
5:13 PM 66.9 °F 62.6 °F 86% 29.66 in 7.0 mi SSW 9.2 mph - N/A   Scattered Clouds
5:33 PM 67.1 °F 62.8 °F 86% 29.66 in 7.0 mi SSW 17.3 mph - N/A Rain Light Rain
5:53 PM 67.3 °F 61.9 °F 83% 29.64 in 10.0 mi SW 12.7 mph - N/A   Mostly Cloudy
6:13 PM 66.2 °F 61.2 °F 84% 29.59 in 10.0 mi Calm Calm - N/A   Mostly Cloudy
6:33 PM 65.8 °F 61.7 °F 86% 29.58 in 10.0 mi ESE 6.9 mph - N/A   Scattered Clouds
6:53 PM 66.2 °F 61.5 °F 85% 29.57 in 10.0 mi ESE 10.4 mph - N/A   Clear
7:13 PM 65.8 °F 60.8 °F 84% 29.58 in 10.0 mi SE 16.1 mph - N/A   Clear
7:33 PM 65.8 °F 61.5 °F 86% 29.59 in 7.0 mi ESE 10.4 mph - N/A   Clear
7:53 PM 65.8 °F 62.2 °F 88% 29.60 in 7.0 mi ESE 6.9 mph - N/A   Clear
8:13 PM 65.8 °F 62.6 °F 89% 29.59 in 7.0 mi East 6.9 mph - N/A   Scattered Clouds
8:33 PM 65.7 °F 62.8 °F 90% 29.60 in 7.0 mi East 6.9 mph - N/A   Clear
8:54 PM 64.8 °F 62.8 °F 93% 29.59 in 7.0 mi ENE 3.5 mph - N/A   Clear
9:14 PM 64.0 °F 62.6 °F 95% 29.58 in 5.0 mi ENE 4.6 mph - N/A   Clear
9:33 PM 63.5 °F 62.1 °F 95% 29.57 in 5.0 mi NE 4.6 mph - N/A   Clear
9:53 PM 62.8 °F 61.7 °F 96% 29.56 in 5.0 mi NNE 4.6 mph - N/A   Clear
10:12 PM 62.6 °F 61.3 °F 96% 29.57 in 5.0 mi NE 4.6 mph - N/A   Clear
10:33 PM 62.6 °F 61.2 °F 95% 29.58 in 7.0 mi ENE 5.8 mph - N/A   Clear
11:14 PM 62.1 °F 60.8 °F 96% 29.59 in 7.0 mi ENE 6.9 mph - N/A   Clear
11:33 PM 61.7 °F 60.8 °F 97% 29.59 in 5.0 mi East 8.1 mph - N/A   Clear
11:53 PM 61.3 °F 60.4 °F 97% 29.59 in 7.0 mi East 8.1 mph - N/A   Clear